StationID,Date,MaxTemp,MinTemp,Precipitation,Snowfall,SnowDepth
"USC00503454","1940-11-01",46.94,39.02,218.00,0.00,
"USC00503454","1940-11-02",46.04,37.04,58.00,0.00,
"USC00503454","1940-11-03",44.96,39.02,43.00,0.00,
"USC00503454","1940-11-04",42.98,37.94,185.00,0.00,
"USC00503454","1940-11-05",41.00,33.08,0.00,0.00,
"USC00503454","1940-11-06",37.94,24.98,0.00,0.00,
"USC00503454","1940-11-07",41.00,30.02,0.00,0.00,
"USC00503454","1940-11-08",39.02,30.02,0.00,0.00,
"USC00503454","1940-11-09",39.02,30.92,3.00,3.00,0.00
"USC00503454","1940-11-10",37.94,30.92,0.00,0.00,
"USC00503454","1940-11-11",37.94,28.94,0.00,0.00,
"USC00503454","1940-11-12",39.92,30.92,51.00,0.00,
"USC00503454","1940-11-13",51.08,,5.00,0.00,
"USC00503454","1940-11-14",50.00,41.00,107.00,0.00,
"USC00503454","1940-11-15",48.02,42.98,157.00,0.00,
"USC00503454","1940-11-16",46.94,42.08,61.00,0.00,
"USC00503454","1940-11-17",42.98,37.04,5.00,0.00,
"USC00503454","1940-11-18",46.04,37.94,28.00,0.00,
"USC00503454","1940-11-19",48.02,39.02,86.00,0.00,
"USC00503454","1940-11-20",42.98,37.04,18.00,0.00,
"USC00503454","1940-11-21",44.06,37.04,0.00,0.00,
"USC00503454","1940-11-22",42.98,35.06,89.00,0.00,
"USC00503454","1940-11-23",46.94,39.92,224.00,0.00,
"USC00503454","1940-11-24",46.94,39.92,145.00,0.00,
"USC00503454","1940-11-25",44.96,37.04,66.00,0.00,
"USC00503454","1940-11-26",48.92,42.08,51.00,0.00,
"USC00503454","1940-11-27",46.94,44.96,178.00,0.00,
"USC00503454","1940-11-28",44.96,42.08,38.00,0.00,
"USC00503454","1940-11-29",46.04,39.02,0.00,0.00,
"USC00503454","1940-11-30",42.98,39.92,25.00,0.00,
"USC00503454","1940-12-01",46.04,37.94,97.00,0.00,
"USC00503454","1940-12-02",48.92,42.98,86.00,0.00,
"USC00503454","1940-12-03",51.98,42.08,114.00,0.00,
"USC00503454","1940-12-04",50.00,41.00,335.00,0.00,
"USC00503454","1940-12-05",44.96,41.00,269.00,0.00,
"USC00503454","1940-12-06",44.06,39.02,201.00,0.00,
"USC00503454","1940-12-07",48.02,37.04,36.00,0.00,
"USC00503454","1940-12-08",46.04,41.00,25.00,0.00,
"USC00503454","1940-12-09",44.06,37.04,3.00,0.00,
"USC00503454","1940-12-10",41.00,37.94,3.00,0.00,
"USC00503454","1940-12-11",41.00,33.98,0.00,0.00,
"USC00503454","1940-12-12",35.96,32.00,0.00,0.00,
"USC00503454","1940-12-13",39.92,33.98,38.00,0.00,
"USC00503454","1940-12-14",53.06,37.04,30.00,0.00,
"USC00503454","1940-12-15",41.00,32.00,0.00,0.00,
"USC00503454","1940-12-16",42.08,32.00,0.00,0.00,
"USC00503454","1940-12-17",46.04,37.04,20.00,0.00,
"USC00503454","1940-12-18",46.94,41.00,5.00,0.00,
"USC00503454","1940-12-19",51.08,42.98,18.00,0.00,
"USC00503454","1940-12-20",51.08,41.00,150.00,0.00,
"USC00503454","1940-12-21",48.02,41.00,86.00,0.00,
"USC00503454","1940-12-22",46.04,39.02,18.00,0.00,
"USC00503454","1940-12-23",42.98,35.96,0.00,0.00,
"USC00503454","1940-12-24",39.92,33.98,0.00,0.00,
"USC00503454","1940-12-25",50.00,32.00,0.00,0.00,
"USC00503454","1940-12-26",50.00,28.04,0.00,0.00,
"USC00503454","1940-12-27",39.02,28.94,18.00,0.00,
"USC00503454","1940-12-28",41.00,35.06,23.00,0.00,
"USC00503454","1940-12-29",37.94,32.00,0.00,0.00,
"USC00503454","1940-12-30",35.06,30.02,0.00,0.00,
"USC00503454","1940-12-31",33.08,21.92,3.00,0.00,
"USC00503454","1941-01-01",33.08,26.96,3.00,3.00,0.00
"USC00503454","1941-01-02",39.92,28.94,137.00,76.00,0.00
"USC00503454","1941-01-03",48.92,39.02,18.00,0.00,
"USC00503454","1941-01-04",46.94,37.04,13.00,0.00,
"USC00503454","1941-01-05",41.00,37.04,23.00,0.00,
"USC00503454","1941-01-06",39.02,33.08,0.00,0.00,
"USC00503454","1941-01-07",39.02,30.92,0.00,0.00,
"USC00503454","1941-01-08",44.06,35.06,53.00,0.00,
"USC00503454","1941-01-09",46.94,37.94,114.00,0.00,
"USC00503454","1941-01-10",46.94,,119.00,0.00,
"USC00503454","1941-01-11",46.94,41.00,0.00,0.00,
"USC00503454","1941-01-12",46.94,39.02,53.00,0.00,
"USC00503454","1941-01-13",48.02,42.98,25.00,0.00,
"USC00503454","1941-01-14",44.96,37.94,0.00,0.00,
"USC00503454","1941-01-15",42.08,37.04,0.00,0.00,
"USC00503454","1941-01-16",44.96,37.04,0.00,0.00,
"USC00503454","1941-01-17",44.96,35.06,30.00,0.00,
"USC00503454","1941-01-18",46.94,35.06,94.00,0.00,
"USC00503454","1941-01-19",48.02,41.00,56.00,0.00,
"USC00503454","1941-01-20",44.96,41.00,0.00,0.00,
"USC00503454","1941-01-21",42.08,33.98,0.00,0.00,
"USC00503454","1941-01-22",37.94,32.00,0.00,0.00,
"USC00503454","1941-01-23",35.96,19.94,0.00,0.00,
"USC00503454","1941-01-24",28.94,17.06,0.00,0.00,
"USC00503454","1941-01-25",30.92,15.98,0.00,0.00,
"USC00503454","1941-01-26",39.92,28.94,28.00,0.00,
"USC00503454","1941-01-27",48.92,33.08,89.00,0.00,
"USC00503454","1941-01-28",46.94,39.92,43.00,0.00,
"USC00503454","1941-01-29",48.02,41.00,188.00,0.00,
"USC00503454","1941-01-30",46.94,35.06,137.00,0.00,
"USC00503454","1941-01-31",48.92,35.96,64.00,0.00,
"USC00503454","1941-02-01",48.92,39.92,97.00,0.00,
"USC00503454","1941-02-02",46.94,39.02,38.00,0.00,
"USC00503454","1941-02-03",53.06,41.00,122.00,0.00,
"USC00503454","1941-02-04",55.04,41.00,84.00,0.00,
"USC00503454","1941-02-05",44.06,41.00,102.00,0.00,
"USC00503454","1941-02-06",44.06,37.94,3.00,0.00,
"USC00503454","1941-02-07",50.00,39.02,23.00,0.00,
"USC00503454","1941-02-08",50.00,39.92,,0.00,
"USC00503454","1941-02-09",46.04,37.04,0.00,0.00,
"USC00503454","1941-02-10",42.08,35.96,48.00,0.00,
"USC00503454","1941-02-11",41.00,35.06,0.00,0.00,
"USC00503454","1941-02-12",41.00,32.00,76.00,0.00,
"USC00503454","1941-02-13",39.02,33.08,8.00,0.00,
"USC00503454","1941-02-14",42.08,37.94,0.00,0.00,
"USC00503454","1941-02-15",42.98,35.06,0.00,0.00,
"USC00503454","1941-02-16",42.98,35.96,0.00,0.00,
"USC00503454","1941-02-17",42.98,35.06,0.00,0.00,
"USC00503454","1941-02-18",44.06,35.06,0.00,0.00,
"USC00503454","1941-02-19",46.94,35.96,0.00,0.00,
"USC00503454","1941-02-20",46.04,35.06,0.00,0.00,
"USC00503454","1941-02-21",41.00,26.06,0.00,0.00,
"USC00503454","1941-02-22",37.04,26.96,0.00,0.00,
"USC00503454","1941-02-23",39.02,28.04,0.00,0.00,
"USC00503454","1941-02-24",39.92,28.04,0.00,0.00,
"USC00503454","1941-02-25",37.94,24.08,0.00,0.00,
"USC00503454","1941-02-26",32.00,24.08,,0.00,
"USC00503454","1941-02-27",33.98,,0.00,0.00,
"USC00503454","1941-02-28",39.92,26.96,0.00,0.00,
"USC00503454","1941-03-01",42.98,35.96,0.00,0.00,
"USC00503454","1941-03-02",44.06,35.96,0.00,0.00,
"USC00503454","1941-03-03",46.94,33.08,0.00,0.00,
"USC00503454","1941-03-04",44.96,37.04,8.00,0.00,
"USC00503454","1941-03-05",46.04,39.92,66.00,0.00,
"USC00503454","1941-03-06",44.06,37.94,79.00,0.00,
"USC00503454","1941-03-07",44.96,33.08,97.00,0.00,
"USC00503454","1941-03-08",46.04,35.06,25.00,0.00,
"USC00503454","1941-03-09",44.96,37.04,36.00,0.00,
"USC00503454","1941-03-10",46.94,33.98,0.00,0.00,
"USC00503454","1941-03-11",51.08,37.04,0.00,0.00,
"USC00503454","1941-03-12",48.02,37.94,0.00,0.00,
"USC00503454","1941-03-13",46.04,37.04,3.00,0.00,
"USC00503454","1941-03-14",46.94,39.92,30.00,0.00,
"USC00503454","1941-03-15",46.04,39.02,0.00,0.00,
"USC00503454","1941-03-16",46.04,39.92,3.00,0.00,
"USC00503454","1941-03-17",44.96,39.92,147.00,0.00,
"USC00503454","1941-03-18",46.94,41.00,10.00,0.00,
"USC00503454","1941-03-19",46.94,41.00,28.00,0.00,
"USC00503454","1941-03-20",46.94,37.04,175.00,0.00,
"USC00503454","1941-03-21",46.04,35.06,203.00,0.00,
"USC00503454","1941-03-22",44.96,39.02,89.00,0.00,
"USC00503454","1941-03-23",44.96,41.00,38.00,0.00,
"USC00503454","1941-03-24",46.94,41.00,89.00,0.00,
"USC00503454","1941-03-25",48.92,41.00,0.00,0.00,
"USC00503454","1941-03-26",51.98,37.04,0.00,0.00,
"USC00503454","1941-03-27",44.96,35.96,23.00,0.00,
"USC00503454","1941-03-28",46.94,39.02,0.00,0.00,
"USC00503454","1941-03-29",46.94,37.04,0.00,0.00,
"USC00503454","1941-03-30",48.02,37.04,0.00,0.00,
"USC00503454","1941-03-31",48.02,37.94,0.00,0.00,
"USC00503454","1941-04-01",51.98,44.06,112.00,0.00,
"USC00503454","1941-04-02",51.08,42.98,0.00,0.00,
"USC00503454","1941-04-03",53.06,41.00,30.00,0.00,
"USC00503454","1941-04-04",51.08,39.02,0.00,0.00,
"USC00503454","1941-04-05",51.08,42.08,28.00,0.00,
"USC00503454","1941-04-06",50.00,41.00,18.00,0.00,
"USC00503454","1941-04-07",51.98,42.98,112.00,0.00,
"USC00503454","1941-04-08",50.00,42.98,188.00,0.00,
"USC00503454","1941-04-09",46.94,42.98,41.00,0.00,
"USC00503454","1941-04-10",53.96,41.00,0.00,0.00,
"USC00503454","1941-04-11",53.06,41.00,18.00,0.00,
"USC00503454","1941-04-12",50.00,41.00,0.00,0.00,
"USC00503454","1941-04-13",51.08,41.00,41.00,0.00,
"USC00503454","1941-04-14",50.00,39.02,0.00,0.00,
"USC00503454","1941-04-15",46.94,35.96,0.00,0.00,
"USC00503454","1941-04-16",53.96,42.08,0.00,0.00,
"USC00503454","1941-04-17",53.06,41.00,0.00,0.00,
"USC00503454","1941-04-18",53.06,42.08,0.00,0.00,
"USC00503454","1941-04-19",55.04,41.00,0.00,0.00,
"USC00503454","1941-04-20",55.94,39.92,8.00,0.00,
"USC00503454","1941-04-21",57.02,42.98,0.00,0.00,
"USC00503454","1941-04-22",57.02,44.06,3.00,0.00,
"USC00503454","1941-04-23",55.04,41.00,0.00,0.00,
"USC00503454","1941-04-24",53.96,42.08,0.00,0.00,
"USC00503454","1941-04-25",59.00,44.06,0.00,0.00,
"USC00503454","1941-04-26",57.02,44.06,0.00,0.00,
"USC00503454","1941-04-27",51.08,42.98,28.00,0.00,
"USC00503454","1941-04-28",48.02,44.06,251.00,0.00,
"USC00503454","1941-04-29",51.98,42.98,5.00,0.00,
"USC00503454","1941-04-30",51.08,46.94,79.00,0.00,
"USC00503454","1941-05-01",51.08,44.06,10.00,0.00,
"USC00503454","1941-05-02",53.06,44.06,25.00,0.00,
"USC00503454","1941-05-03",51.98,46.04,25.00,0.00,
"USC00503454","1941-05-04",53.96,41.00,0.00,0.00,
"USC00503454","1941-05-05",57.92,46.94,0.00,0.00,
"USC00503454","1941-05-06",57.92,51.08,18.00,0.00,
"USC00503454","1941-05-07",62.96,46.04,48.00,0.00,
"USC00503454","1941-05-08",55.04,44.06,18.00,0.00,
"USC00503454","1941-05-09",53.96,44.96,0.00,0.00,
"USC00503454","1941-05-10",57.02,41.00,0.00,0.00,
"USC00503454","1941-05-11",60.08,44.96,0.00,0.00,
"USC00503454","1941-05-12",59.00,41.00,0.00,0.00,
"USC00503454","1941-05-13",57.02,46.94,18.00,0.00,
"USC00503454","1941-05-14",53.96,44.96,0.00,0.00,
"USC00503454","1941-05-15",48.92,42.98,28.00,0.00,
"USC00503454","1941-05-16",55.04,44.06,64.00,0.00,
"USC00503454","1941-05-17",55.04,37.94,0.00,0.00,
"USC00503454","1941-05-18",53.96,44.96,15.00,0.00,
"USC00503454","1941-05-19",48.92,42.08,23.00,0.00,
"USC00503454","1941-05-20",51.98,39.92,64.00,0.00,
"USC00503454","1941-05-21",55.04,42.08,0.00,0.00,
"USC00503454","1941-05-22",57.02,41.00,13.00,0.00,
"USC00503454","1941-05-23",51.08,42.08,53.00,0.00,
"USC00503454","1941-05-24",57.02,42.08,5.00,0.00,
"USC00503454","1941-05-25",60.08,46.04,0.00,0.00,
"USC00503454","1941-05-26",55.94,46.04,0.00,0.00,
"USC00503454","1941-05-27",55.04,46.94,0.00,0.00,
"USC00503454","1941-05-28",57.92,46.94,0.00,0.00,
"USC00503454","1941-05-29",64.04,44.96,0.00,0.00,
"USC00503454","1941-05-30",64.04,51.08,0.00,0.00,
"USC00503454","1941-05-31",57.02,51.08,0.00,0.00,
"USC00503454","1941-06-01",60.08,51.98,0.00,0.00,
"USC00503454","1941-06-02",57.02,51.08,0.00,0.00,
"USC00503454","1941-06-03",53.96,48.92,0.00,0.00,
"USC00503454","1941-06-04",60.98,46.94,0.00,0.00,
"USC00503454","1941-06-05",60.08,46.94,0.00,0.00,
"USC00503454","1941-06-06",55.94,48.02,38.00,0.00,
"USC00503454","1941-06-07",68.00,48.02,0.00,0.00,
"USC00503454","1941-06-08",55.94,50.00,94.00,0.00,
"USC00503454","1941-06-09",55.94,48.02,33.00,0.00,
"USC00503454","1941-06-10",55.04,50.00,81.00,0.00,
"USC00503454","1941-06-11",55.94,51.08,216.00,0.00,
"USC00503454","1941-06-12",60.08,51.98,0.00,0.00,
"USC00503454","1941-06-13",60.98,48.92,0.00,0.00,
"USC00503454","1941-06-14",60.98,46.94,0.00,0.00,
"USC00503454","1941-06-15",64.94,46.94,0.00,0.00,
"USC00503454","1941-06-16",60.98,51.98,0.00,0.00,
"USC00503454","1941-06-17",57.92,51.08,20.00,0.00,
"USC00503454","1941-06-18",60.98,50.00,8.00,0.00,
"USC00503454","1941-06-19",60.08,50.00,3.00,0.00,
"USC00503454","1941-06-20",60.98,51.08,0.00,0.00,
"USC00503454","1941-06-21",64.94,51.08,0.00,0.00,
"USC00503454","1941-06-22",71.96,55.94,0.00,0.00,
"USC00503454","1941-06-23",71.06,53.96,25.00,0.00,
"USC00503454","1941-06-24",57.92,53.06,46.00,0.00,
"USC00503454","1941-06-25",64.04,53.06,15.00,0.00,
"USC00503454","1941-06-26",64.04,53.06,74.00,0.00,
"USC00503454","1941-06-27",57.02,51.98,38.00,0.00,
"USC00503454","1941-06-28",60.98,53.96,25.00,0.00,
"USC00503454","1941-06-29",60.98,55.04,46.00,0.00,
"USC00503454","1941-06-30",60.08,51.08,0.00,0.00,
"USC00503454","1941-07-01",62.06,51.08,74.00,0.00,
"USC00503454","1941-07-02",60.98,50.00,25.00,0.00,
"USC00503454","1941-07-03",60.98,50.00,0.00,0.00,
"USC00503454","1941-07-04",62.06,53.06,46.00,0.00,
"USC00503454","1941-07-05",62.06,55.94,64.00,0.00,
"USC00503454","1941-07-06",60.98,53.06,0.00,0.00,
"USC00503454","1941-07-07",64.04,53.96,0.00,0.00,
"USC00503454","1941-07-08",60.98,53.06,0.00,0.00,
"USC00503454","1941-07-09",64.04,53.96,0.00,0.00,
"USC00503454","1941-07-10",68.00,55.94,0.00,0.00,
"USC00503454","1941-07-11",68.00,55.04,10.00,0.00,
"USC00503454","1941-07-12",60.98,55.04,231.00,0.00,
"USC00503454","1941-07-13",60.08,55.04,76.00,0.00,
"USC00503454","1941-07-14",73.04,53.96,0.00,0.00,
"USC00503454","1941-07-15",75.02,60.08,0.00,0.00,
"USC00503454","1941-07-16",75.02,57.02,0.00,0.00,
"USC00503454","1941-07-17",69.98,59.00,0.00,0.00,
"USC00503454","1941-07-18",69.08,55.94,0.00,0.00,
"USC00503454","1941-07-19",66.02,55.04,0.00,0.00,
"USC00503454","1941-07-20",62.06,53.96,23.00,0.00,
"USC00503454","1941-07-21",62.96,53.06,56.00,0.00,
"USC00503454","1941-07-22",64.94,60.98,33.00,0.00,
"USC00503454","1941-07-23",66.02,55.94,0.00,0.00,
"USC00503454","1941-07-24",68.00,51.98,0.00,0.00,
"USC00503454","1941-07-25",66.02,53.96,0.00,0.00,
"USC00503454","1941-07-26",64.94,55.94,0.00,0.00,
"USC00503454","1941-07-27",64.04,51.08,0.00,0.00,
"USC00503454","1941-07-28",64.04,55.04,15.00,0.00,
"USC00503454","1941-07-29",62.06,50.00,84.00,0.00,
"USC00503454","1941-07-30",62.06,48.02,0.00,0.00,
"USC00503454","1941-07-31",60.08,42.98,5.00,0.00,
"USC00503454","1941-08-01",62.06,41.00,30.00,0.00,
"USC00503454","1941-08-02",64.04,51.98,3.00,0.00,
"USC00503454","1941-08-03",69.08,50.00,0.00,0.00,
"USC00503454","1941-08-04",69.08,55.04,0.00,0.00,
"USC00503454","1941-08-05",59.00,55.04,0.00,0.00,
"USC00503454","1941-08-06",62.96,55.04,0.00,0.00,
"USC00503454","1941-08-07",64.04,53.06,0.00,0.00,
"USC00503454","1941-08-08",69.98,55.04,0.00,0.00,
"USC00503454","1941-08-09",69.98,57.92,0.00,0.00,
"USC00503454","1941-08-10",64.04,53.96,0.00,0.00,
"USC00503454","1941-08-11",64.94,48.92,0.00,0.00,
"USC00503454","1941-08-12",60.98,53.96,0.00,0.00,
"USC00503454","1941-08-13",66.92,51.98,0.00,0.00,
"USC00503454","1941-08-14",69.98,53.96,0.00,0.00,
"USC00503454","1941-08-15",66.92,55.04,0.00,0.00,
"USC00503454","1941-08-16",66.02,51.98,0.00,0.00,
"USC00503454","1941-08-17",71.96,53.96,0.00,0.00,
"USC00503454","1941-08-18",71.06,55.94,0.00,0.00,
"USC00503454","1941-08-19",71.06,57.02,0.00,0.00,
"USC00503454","1941-08-20",71.06,57.92,5.00,0.00,
"USC00503454","1941-08-21",66.02,57.92,33.00,0.00,
"USC00503454","1941-08-22",64.04,55.04,74.00,0.00,
"USC00503454","1941-08-23",,,0.00,0.00,
"USC00503454","1941-08-24",62.96,51.98,53.00,0.00,
"USC00503454","1941-08-25",64.04,51.98,0.00,0.00,
"USC00503454","1941-08-26",66.02,53.96,0.00,0.00,
"USC00503454","1941-08-27",68.00,57.92,0.00,0.00,
"USC00503454","1941-08-28",,,0.00,0.00,
"USC00503454","1941-08-29",64.94,53.96,0.00,0.00,
"USC00503454","1941-08-30",60.98,53.06,81.00,0.00,
"USC00503454","1941-08-31",64.94,50.00,0.00,0.00,
"USC00503454","1941-09-01",64.94,48.92,,0.00,
"USC00503454","1941-09-02",64.94,48.92,,0.00,
"USC00503454","1941-09-03",60.08,51.98,30.00,0.00,
"USC00503454","1941-09-04",62.96,51.08,15.00,0.00,
"USC00503454","1941-09-05",62.96,51.08,5.00,0.00,
"USC00503454","1941-09-06",60.08,50.00,,0.00,
"USC00503454","1941-09-07",60.08,51.98,,0.00,
"USC00503454","1941-09-08",59.00,53.06,36.00,0.00,
"USC00503454","1941-09-09",60.08,48.02,,0.00,
"USC00503454","1941-09-10",62.96,53.06,,0.00,
"USC00503454","1941-09-11",64.04,53.06,,0.00,
"USC00503454","1941-09-12",62.96,51.08,15.00,0.00,
"USC00503454","1941-09-13",60.98,51.08,43.00,0.00,
"USC00503454","1941-09-14",62.06,46.04,,0.00,
"USC00503454","1941-09-15",57.92,48.02,127.00,0.00,
"USC00503454","1941-09-16",57.92,44.96,43.00,0.00,
"USC00503454","1941-09-17",57.92,46.94,,0.00,
"USC00503454","1941-09-18",57.92,46.94,,0.00,
"USC00503454","1941-09-19",60.08,44.96,,0.00,
"USC00503454","1941-09-20",60.08,44.96,102.00,0.00,
"USC00503454","1941-09-21",57.02,44.96,249.00,0.00,
"USC00503454","1941-09-22",60.08,55.04,163.00,0.00,
"USC00503454","1941-09-23",59.00,51.08,137.00,0.00,
"USC00503454","1941-09-24",55.04,51.98,25.00,0.00,
"USC00503454","1941-09-25",53.96,51.08,180.00,0.00,
"USC00503454","1941-09-26",57.92,48.02,,0.00,
"USC00503454","1941-09-27",55.94,48.92,13.00,0.00,
"USC00503454","1941-09-28",55.94,48.02,,0.00,
"USC00503454","1941-09-29",53.96,46.94,30.00,0.00,
"USC00503454","1941-09-30",53.96,46.94,,0.00,
"USC00503454","1941-10-01",53.96,46.04,13.00,,
"USC00503454","1941-10-02",55.04,48.92,152.00,,
"USC00503454","1941-10-03",55.94,48.92,53.00,,
"USC00503454","1941-10-04",,,0.00,,
"USC00503454","1941-10-05",51.08,44.96,13.00,,
"USC00503454","1941-10-06",55.04,44.06,0.00,,
"USC00503454","1941-10-07",53.06,42.98,0.00,,
"USC00503454","1941-10-08",48.92,42.98,20.00,,
"USC00503454","1941-10-09",51.98,44.06,160.00,,
"USC00503454","1941-10-10",53.96,39.92,64.00,,
"USC00503454","1941-10-11",48.92,44.06,81.00,,
"USC00503454","1941-10-12",50.00,42.98,10.00,,
"USC00503454","1941-10-13",51.98,44.96,114.00,,
"USC00503454","1941-10-14",50.00,44.96,15.00,,
"USC00503454","1941-10-15",,,0.00,,
"USC00503454","1941-10-16",51.98,44.96,229.00,,
"USC00503454","1941-10-17",51.98,48.92,310.00,,
"USC00503454","1941-10-18",51.08,44.06,99.00,,
"USC00503454","1941-10-19",50.00,44.06,23.00,,
"USC00503454","1941-10-20",51.98,42.08,86.00,,
"USC00503454","1941-10-21",51.08,,10.00,,
"USC00503454","1941-10-22",51.98,46.04,86.00,,
"USC00503454","1941-10-23",51.98,48.92,257.00,,
"USC00503454","1941-10-24",51.08,46.94,264.00,,
"USC00503454","1941-10-25",48.92,44.06,0.00,,
"USC00503454","1941-10-26",48.92,41.00,89.00,,
"USC00503454","1941-10-27",51.98,41.00,0.00,,
"USC00503454","1941-10-28",48.92,,0.00,,
"USC00503454","1941-10-29",51.98,39.92,46.00,,
"USC00503454","1941-10-30",51.98,35.96,145.00,,
"USC00503454","1941-10-31",50.00,44.06,28.00,,
"USC00503454","1941-11-01",44.96,39.92,127.00,0.00,
"USC00503454","1941-11-02",42.08,33.98,0.00,0.00,
"USC00503454","1941-11-03",42.98,33.98,66.00,0.00,
"USC00503454","1941-11-04",51.98,33.98,257.00,0.00,
"USC00503454","1941-11-05",51.98,30.92,84.00,0.00,
"USC00503454","1941-11-06",50.00,44.06,53.00,0.00,
"USC00503454","1941-11-07",51.98,44.06,340.00,0.00,
"USC00503454","1941-11-08",51.98,42.98,122.00,0.00,
"USC00503454","1941-11-09",46.94,35.96,25.00,0.00,
"USC00503454","1941-11-10",55.94,44.96,312.00,0.00,
"USC00503454","1941-11-11",53.96,37.04,102.00,0.00,
"USC00503454","1941-11-12",44.96,35.96,41.00,0.00,
"USC00503454","1941-11-13",44.96,39.02,114.00,0.00,
"USC00503454","1941-11-14",44.96,39.02,76.00,0.00,
"USC00503454","1941-11-15",44.96,35.96,61.00,0.00,
"USC00503454","1941-11-16",41.00,35.96,0.00,0.00,
"USC00503454","1941-11-17",39.92,33.98,0.00,0.00,
"USC00503454","1941-11-18",42.98,33.08,0.00,0.00,
"USC00503454","1941-11-19",44.06,37.04,61.00,0.00,
"USC00503454","1941-11-20",48.92,39.02,36.00,0.00,
"USC00503454","1941-11-21",44.96,35.06,0.00,0.00,
"USC00503454","1941-11-22",46.04,37.04,0.00,0.00,
"USC00503454","1941-11-23",46.04,42.98,213.00,0.00,
"USC00503454","1941-11-24",44.96,37.04,28.00,0.00,
"USC00503454","1941-11-25",46.04,33.98,58.00,0.00,
"USC00503454","1941-11-26",46.04,33.98,0.00,0.00,
"USC00503454","1941-11-27",41.00,33.08,0.00,0.00,
"USC00503454","1941-11-28",41.00,28.94,71.00,0.00,
"USC00503454","1941-11-29",39.02,35.96,264.00,0.00,
"USC00503454","1941-11-30",42.08,35.06,23.00,0.00,
"USC00503454","1942-04-11",44.96,35.96,,,
"USC00503454","1942-04-12",48.02,30.92,,,
"USC00503454","1942-04-13",48.92,35.06,,,
"USC00503454","1942-04-14",48.92,37.04,,,
"USC00503454","1942-04-15",48.92,35.06,3.00,,
"USC00503454","1942-04-16",48.92,39.02,135.00,,
"USC00503454","1942-04-17",46.94,37.94,107.00,,
"USC00503454","1942-04-18",44.96,39.02,107.00,,
"USC00503454","1942-04-19",44.96,41.00,46.00,,
"USC00503454","1942-04-20",48.02,39.92,,,
"USC00503454","1942-04-23",48.02,37.94,109.00,,
"USC00503454","1942-04-24",51.98,37.04,109.00,,
"USC00503454","1942-04-25",50.00,39.92,46.00,,
"USC00503454","1942-04-26",48.92,37.94,23.00,,
"USC00503454","1942-04-27",51.08,35.96,8.00,,
"USC00503454","1942-04-28",51.98,35.96,3.00,,
"USC00503454","1942-04-29",51.98,37.04,33.00,,
"USC00503454","1942-04-30",50.00,39.92,33.00,,
"USC00503454","1942-05-01",50.00,39.92,89.00,0.00,
"USC00503454","1942-05-02",46.04,39.92,132.00,0.00,
"USC00503454","1942-05-03",46.04,39.92,56.00,0.00,
"USC00503454","1942-05-04",51.08,39.92,0.00,0.00,
"USC00503454","1942-05-05",51.08,42.98,0.00,0.00,
"USC00503454","1942-05-06",51.08,42.98,5.00,0.00,
"USC00503454","1942-05-07",48.92,42.98,56.00,0.00,
"USC00503454","1942-05-08",,,0.00,0.00,
"USC00503454","1942-05-09",55.04,41.00,58.00,0.00,
"USC00503454","1942-05-10",62.06,42.98,0.00,0.00,
"USC00503454","1942-05-11",60.08,50.00,0.00,0.00,
"USC00503454","1942-05-12",60.98,48.92,0.00,0.00,
"USC00503454","1942-05-13",,,0.00,0.00,
"USC00503454","1942-05-14",57.92,44.06,0.00,0.00,
"USC00503454","1942-05-15",57.92,39.92,0.00,0.00,
"USC00503454","1942-05-16",57.92,44.06,0.00,0.00,
"USC00503454","1942-05-17",60.08,48.02,0.00,0.00,
"USC00503454","1942-05-18",60.08,48.02,0.00,0.00,
"USC00503454","1942-05-19",60.08,44.06,0.00,0.00,
"USC00503454","1942-05-20",55.04,48.92,0.00,0.00,
"USC00503454","1942-05-21",55.04,48.02,0.00,0.00,
"USC00503454","1942-05-22",,48.92,0.00,0.00,
"USC00503454","1942-05-23",55.04,48.02,0.00,0.00,
"USC00503454","1942-05-24",57.02,48.02,0.00,0.00,
"USC00503454","1942-05-25",57.92,48.02,0.00,0.00,
"USC00503454","1942-05-26",57.92,44.96,191.00,0.00,
"USC00503454","1942-05-27",57.02,46.94,5.00,0.00,
"USC00503454","1942-05-28",62.96,48.02,0.00,0.00,
"USC00503454","1942-05-29",,,0.00,0.00,
"USC00503454","1942-05-30",64.04,44.06,0.00,0.00,
"USC00503454","1942-05-31",59.00,42.98,0.00,0.00,
"USC00503454","1943-09-26",59.00,51.08,254.00,,
"USC00503454","1943-09-27",55.04,48.02,109.00,,
"USC00503454","1943-09-28",57.02,48.92,89.00,,
"USC00503454","1943-09-29",55.04,48.02,18.00,,
"USC00503454","1943-09-30",53.96,48.92,76.00,,
"USC00503454","1943-10-01",57.92,51.08,102.00,,
"USC00503454","1943-10-02",55.04,48.92,89.00,,
"USC00503454","1943-10-03",55.94,48.02,8.00,,
"USC00503454","1943-10-04",53.96,48.02,0.00,,
"USC00503454","1943-10-05",59.00,48.92,0.00,,
"USC00503454","1943-10-06",57.92,53.06,18.00,,
"USC00503454","1943-10-07",55.94,51.98,150.00,,
"USC00503454","1943-10-08",59.00,51.98,86.00,,
"USC00503454","1943-10-09",57.92,48.92,0.00,,
"USC00503454","1943-10-10",55.04,46.04,0.00,,
"USC00503454","1943-10-11",55.04,44.06,0.00,,
"USC00503454","1943-10-12",50.00,42.08,152.00,,
"USC00503454","1943-10-13",50.00,48.92,0.00,,
"USC00503454","1943-10-14",53.06,44.06,203.00,,
"USC00503454","1943-10-15",53.96,44.96,175.00,,
"USC00503454","1943-10-16",51.98,42.98,18.00,,
"USC00503454","1943-10-17",51.98,42.98,3.00,,
"USC00503454","1943-10-18",51.08,41.00,3.00,,
"USC00503454","1943-10-19",50.00,37.04,0.00,,
"USC00503454","1943-10-20",50.00,37.04,0.00,,
"USC00503454","1943-10-21",50.00,37.04,0.00,,
"USC00503454","1943-10-22",48.02,37.04,0.00,,
"USC00503454","1943-10-23",51.08,42.08,0.00,,
"USC00503454","1943-10-24",50.00,42.08,0.00,,